Simultaneous Nadir Overpasses (SNOs) Predictions

Prediction of SNOs between NOAA-19 and NPP Satellite Orbit:

Table of predicted SNOs for the next 14.0 days since TLE Epoch: 2/15/2013
Index Date (NOAA-19) Time (NOAA-19) Lat,Lon (NOAA-19) SZA (NOAA-19 ) Date (NPP) Time (NPP) Lat,Lon (NPP) SZA (NPP ) Distance(km) Time Diff (sec)
1 02/22/2013 07:12:05 -80.88,-159.84 85.21 02/22/2013 07:13:20 -80.88,-159.79 85.25 0.85 75
2 02/22/2013 08:03:02 80.87, 7.78 94.73 02/22/2013 08:04:04 80.86, 7.82 94.69 0.61 62
3 02/22/2013 08:54:06 -80.82, 175.99 85.44 02/22/2013 08:54:47 -80.83, 175.90 85.45 1.67 41
4 02/22/2013 09:45:04 80.82, -16.75 94.55 02/22/2013 09:45:32 80.83, -16.85 94.56 1.91 28
5 02/22/2013 10:36:10 -80.83, 150.38 85.45 02/22/2013 10:36:16 -80.83, 150.52 85.47 2.36 6
6 02/22/2013
